Location: Unspecified
(42.3650°N, 71.1030°W)
Time: 17:17:15
(UTC+00:00)

Transit 4A - Pass Details

Date: 04 July 2024
Orbit: 870 x 973 km, 66.8° (Epoch: 17 July)

Event Time Altitude Azimuth Distance (km) Brightness Sun altitude
Rises 01:25:16 0° 238° (WSW) 3,455 11.1 -9.7°
Reaches altitude 10° 01:28:00 10° 248° (WSW) 2,515 10.5 -10.0°
Maximum altitude 01:33:11 33° 312° (NW) 1,435 9.8 -10.7°
Drops below altitude 10° 01:38:24 10° 15° (NNE) 2,532 10.6 -11.4°
Sets 01:41:10 0° 25° (NNE) 3,482 11.2 -11.7°
